Westerdam — PINX — position and weather

sailwx.info

Track history (hours):
 
Tides and Currents Weather Stations Pressure Air Temp Water Temp Dewpoint Dewpoint Depression Visibility Wind Speed Wind Dir Waves Ship Positions

Westerdam

Operator: Holland America Line

Last reported at 2017-Jul-20 18:30 UTC. Time now 2017-Jul-20 18:38 UTC.
Position N 38°20' E 015°40'.

Type: Passenger vessel. MMSI: 244128000.

Date/timePositionNaut miles runAvg speedWind from/ knotsBaromVisibWave heightAir tempDewpointWater temp
2017-Jul-20 18:30N 38°20' E 015°40'611.4
2017-Jul-20 17:59N 38°14' E 015°38'714.3
2017-Jul-20 17:28N 38°07' E 015°35'1315.4
2017-Jul-20 16:39N 37°55' E 015°38'315.8
2017-Jul-20 16:28N 37°52' E 015°40'816.8
2017-Jul-20 16:00N 37°50' E 015°49'916.6
2017-Jul-20 15:29N 37°47' E 015°60'714.5
2017-Jul-20 15:00N 37°42' E 016°06'4916.3 240 / 31013.510.8 27.918.024.0
2017-Jul-20 12:00N 37°30' E 017°06'1515.5 1014.510.8 27.918.024.0
2017-Jul-20 11:00N 37°24' E 017°24'1922.1 310 / 51014.710.8 27.817.624.0
2017-Jul-20 10:07N 37°23' E 017°49'218.9
2017-Jul-20 09:59N 37°23' E 017°51'919.0
2017-Jul-20 09:31N 37°20' E 018°02'3719.0
2017-Jul-20 07:33N 37°10' E 018°47'118.9
2017-Jul-20 07:30N 37°10' E 018°48'1018.9
2017-Jul-20 06:58N 37°07' E 019°01'2020.5
2017-Jul-20 06:00N 37°00' E 019°24'2020.1 360 / 141014.810.8 25.020.024.0
2017-Jul-20 05:00N 36°54' E 019°48'3818.2 350 / 211014.210.8 25.5 24.0
2017-Jul-20 02:54N 36°46' E 020°34'819.3
2017-Jul-20 02:31N 36°44' E 020°44'25033.3
2017-Jul-19 19:00N 36°24' E 025°54'24 3.4 010 / 321014.010.8 25.518.925.5
2017-Jul-19 12:00N 36°24' E 025°24'44 4.0 320 / 211013.210.8 25.518.925.5
2017-Jul-19 01:00N 36°18' E 024°30'26 8.6 350 / 281015.710.8 23.216.725.5
2017-Jul-18 22:00N 36°42' E 024°42'2612.4 360 / 251016.110.8
2017-Jul-18 19:52N 37°06' E 024°57'410.6
2017-Jul-18 19:30N 37°09' E 024°59'510.5
2017-Jul-18 19:00N 37°14' E 025°02'510.7
2017-Jul-18 18:30N 37°19' E 025°05'510.6
2017-Jul-18 18:01N 37°23' E 025°08'510.7
2017-Jul-18 17:30N 37°28' E 025°12'611.7
2017-Jul-18 17:00N 37°27' E 025°19'0 0.2
2017-Jul-18 16:31N 37°27' E 025°19'0 0.3
2017-Jul-18 16:01N 37°27' E 025°19'0 0.4
2017-Jul-18 15:30N 37°28' E 025°19'0 0.2
2017-Jul-18 15:00N 37°28' E 025°19'0 0.1
2017-Jul-18 14:00N 37°28' E 025°19'0 0.1
2017-Jul-18 13:31N 37°28' E 025°19'0 0.6
2017-Jul-18 13:00N 37°27' E 025°19'1 1.3
2017-Jul-18 12:28N 37°27' E 025°19'0 0.3
2017-Jul-18 11:58N 37°27' E 025°19'0 0.1
2017-Jul-18 11:28N 37°27' E 025°19'0 0.2
2017-Jul-18 10:58N 37°27' E 025°19'0 0.0
2017-Jul-18 10:25N 37°27' E 025°19'0 0.0
2017-Jul-18 09:58N 37°27' E 025°19'0 0.0
2017-Jul-18 09:28N 37°27' E 025°19'0 0.0
2017-Jul-18 08:58N 37°27' E 025°19'0 0.0
2017-Jul-18 08:28N 37°27' E 025°19'0 0.0
2017-Jul-18 07:55N 37°27' E 025°19'0 0.0
2017-Jul-18 07:28N 37°27' E 025°19'0 0.0
2017-Jul-18 06:58N 37°27' E 025°19'0 0.0
2017-Jul-18 06:28N 37°27' E 025°19'0 0.0
2017-Jul-18 05:58N 37°27' E 025°19'0 0.0
2017-Jul-18 05:28N 37°27' E 025°19'3 6.4
2017-Jul-18 05:00N 37°24' E 025°18'3103.2 340 / 281013.110.8 23.418.5
2017-Jul-18 04:58N 37°27' E 025°19'0 0.0
2017-Jul-18 04:28N 37°27' E 025°19'0 0.0
2017-Jul-18 03:58N 37°27' E 025°19'0 0.0
2017-Jul-18 03:28N 37°27' E 025°19'0 0.0
2017-Jul-18 02:58N 37°27' E 025°19'0 0.0
2017-Jul-18 02:28N 37°27' E 025°19'0 0.0
2017-Jul-18 01:58N 37°27' E 025°19'0 0.1
2017-Jul-18 01:25N 37°27' E 025°19'0 0.0
2017-Jul-18 00:58N 37°27' E 025°19'0 0.1
2017-Jul-18 00:30N 37°27' E 025°19'1 2.4
2017-Jul-18 00:00N 37°27' E 025°18'714.9
2017-Jul-17 23:30N 37°29' E 025°09'815.1
2017-Jul-17 23:00N 37°31' E 024°59'714.7
2017-Jul-17 22:30N 37°32' E 024°50'3422.2
2017-Jul-17 21:00N 37°18' E 024°12'29 6.0 360 / 221013.110.8 22.616.6
2017-Jul-17 16:12N 37°35' E 023°43'314.9
2017-Jul-17 16:00N 37°38' E 023°43'714.6
2017-Jul-17 15:30N 37°45' E 023°40'714.6
2017-Jul-17 15:00N 37°52' E 023°36'5 9.5
2017-Jul-17 14:31N 37°56' E 023°38'0 0.5
2017-Jul-17 13:58N 37°56' E 023°38'0 0.0
2017-Jul-17 13:28N 37°56' E 023°38'0 0.0
2017-Jul-17 12:58N 37°56' E 023°38'0 0.0
2017-Jul-17 12:28N 37°56' E 023°38'0 0.0
2017-Jul-17 11:58N 37°56' E 023°38'0 0.0
2017-Jul-17 11:28N 37°56' E 023°38'0 0.0
2017-Jul-17 10:58N 37°56' E 023°38'0 0.0
2017-Jul-17 10:28N 37°56' E 023°38'0 0.0
2017-Jul-17 09:58N 37°56' E 023°38'0 0.0
2017-Jul-17 09:28N 37°56' E 023°38'0 0.0
2017-Jul-17 08:58N 37°56' E 023°38'0 0.0
2017-Jul-17 08:25N 37°56' E 023°38'0 0.0
2017-Jul-17 07:58N 37°56' E 023°38'0 0.0
2017-Jul-17 07:28N 37°56' E 023°38'0 0.0
2017-Jul-17 06:58N 37°56' E 023°38'0 0.0
2017-Jul-17 06:28N 37°56' E 023°38'0 0.0
2017-Jul-17 05:58N 37°56' E 023°38'0 0.0
2017-Jul-17 05:28N 37°56' E 023°38'0 0.0
2017-Jul-17 04:58N 37°56' E 023°38'0 0.0
2017-Jul-17 04:28N 37°56' E 023°38'0 0.0
2017-Jul-17 03:58N 37°56' E 023°38'0 0.0
2017-Jul-17 03:28N 37°56' E 023°38'0 0.0
2017-Jul-17 02:58N 37°56' E 023°38'0 0.0
2017-Jul-17 02:28N 37°56' E 023°38'0 0.0
2017-Jul-17 01:58N 37°56' E 023°38'0 0.0
2017-Jul-17 01:28N 37°56' E 023°38'0 0.0
2017-Jul-17 00:55N 37°56' E 023°38'0 0.0
2017-Jul-17 00:28N 37°56' E 023°38'3 6.1
2017-Jul-17 00:00N 37°54' E 023°36'3113.8 330 / 81008.510.8 25.719.625.6
2017-Jul-16 23:58N 37°56' E 023°38'0 0.0
2017-Jul-16 23:28N 37°56' E 023°38'0 0.0
2017-Jul-16 22:58N 37°56' E 023°38'0 0.0
2017-Jul-16 22:28N 37°56' E 023°38'0 0.0
2017-Jul-16 21:58N 37°56' E 023°38'0 0.0
2017-Jul-16 21:28N 37°56' E 023°38'0 0.0
2017-Jul-16 20:58N 37°56' E 023°38'0 0.0
2017-Jul-16 20:28N 37°56' E 023°38'0 0.0
2017-Jul-16 19:58N 37°56' E 023°38'0 0.0
2017-Jul-16 19:28N 37°56' E 023°38'0 0.0
2017-Jul-16 18:58N 37°56' E 023°38'0 0.0
2017-Jul-16 18:28N 37°56' E 023°38'0 0.0
2017-Jul-16 17:58N 37°56' E 023°38'0 0.0
2017-Jul-16 17:28N 37°56' E 023°38'0 0.0
2017-Jul-16 16:58N 37°56' E 023°38'0 0.0
2017-Jul-16 16:28N 37°56' E 023°38'0 0.0
2017-Jul-16 15:58N 37°56' E 023°38'0 0.0
2017-Jul-16 15:28N 37°56' E 023°38'0 0.0
2017-Jul-16 14:58N 37°56' E 023°38'0 0.0
2017-Jul-16 14:28N 37°56' E 023°38'0 0.0
2017-Jul-16 13:58N 37°56' E 023°38'0 0.0
2017-Jul-16 13:28N 37°56' E 023°38'0 0.0
2017-Jul-16 12:58N 37°56' E 023°38'0 0.0
2017-Jul-16 12:28N 37°56' E 023°38'0 0.0
2017-Jul-16 11:58N 37°56' E 023°38'0 0.0
2017-Jul-16 11:28N 37°56' E 023°38'0 0.0
2017-Jul-16 10:58N 37°56' E 023°38'0 0.0
2017-Jul-16 10:28N 37°56' E 023°38'3 6.1
2017-Jul-16 10:00N 37°54' E 023°36'3115.0 1008.510.8 30.723.126.6
2017-Jul-16 09:58N 37°56' E 023°38'0 0.0
2017-Jul-16 09:28N 37°56' E 023°38'0 0.0
2017-Jul-16 08:58N 37°56' E 023°38'0 0.0
2017-Jul-16 08:28N 37°56' E 023°38'0 0.0
2017-Jul-16 07:58N 37°56' E 023°38'0 0.0
2017-Jul-16 07:28N 37°56' E 023°38'0 0.0
2017-Jul-16 06:58N 37°56' E 023°38'0 0.0
2017-Jul-16 06:28N 37°56' E 023°38'0 0.0
2017-Jul-16 05:58N 37°56' E 023°38'0 0.0
2017-Jul-16 05:28N 37°56' E 023°38'0 0.0
2017-Jul-16 04:58N 37°56' E 023°38'0 0.0
2017-Jul-16 04:28N 37°56' E 023°38'0 0.0
2017-Jul-16 03:58N 37°56' E 023°38'0 0.0
2017-Jul-16 03:28N 37°56' E 023°38'0 0.0
2017-Jul-16 02:58N 37°56' E 023°38'0 0.0
2017-Jul-16 02:28N 37°56' E 023°38'0 0.0
2017-Jul-16 01:58N 37°56' E 023°38'0 0.0
2017-Jul-16 01:28N 37°56' E 023°38'0 0.0
2017-Jul-16 00:58N 37°56' E 023°38'0 0.0
2017-Jul-16 00:28N 37°56' E 023°38'0 0.0
2017-Jul-15 23:58N 37°56' E 023°38'0 0.0
2017-Jul-15 23:28N 37°56' E 023°38'0 0.0
2017-Jul-15 22:58N 37°56' E 023°38'0 0.0
2017-Jul-15 22:29N 37°56' E 023°38'0 1.0
2017-Jul-15 22:00N 37°56' E 023°38'3 6.3
2017-Jul-15 21:30N 37°53' E 023°37'919.0
2017-Jul-15 21:00N 37°45' E 023°42'1019.2
2017-Jul-15 20:30N 37°36' E 023°47'45 2.5
2017-Jul-15 02:41N 37°15' E 022°57'4124.3
2017-Jul-15 01:00N 36°36' E 023°12'713.3 260 / 31007.010.8 26.717.726.6
2017-Jul-15 00:26N 36°43' E 023°11'716.4
2017-Jul-15 00:00N 36°36' E 023°12'1918.6 310 / 91007.010.8 26.717.726.6
2017-Jul-14 23:00N 36°18' E 023°06'6315.8 340 / 91007.010.8 26.717.726.6
2017-Jul-14 19:00N 36°24' E 021°48'3413.0 030 / 71007.0 5.4 26.7
2017-Jul-14 16:23N 36°51' E 021°22'3313.9
2017-Jul-14 14:00N 37°24' E 021°24'20 1.5 260 / 161007.010.8 28.1
2017-Jul-14 01:00N 37°30' E 021°00'0 0.0 040 / 51006.2 5.4 25.925.026.0
2017-Jul-13 23:00N 37°30' E 021°00'20 5.0 130 / 51007.010.8 25.5 26.0
2017-Jul-13 19:00N 37°24' E 020°36'1946139.0 340 / 241008.310.8 27.8
2017-Jul-13 05:00N 38°06' W 020°24'1911238.8 160 / 51008.710.8 27.515.823.7
2017-Jul-12 21:00N 38°36' E 020°12'85 4.7 280 / 31011.310.8 26.7
2017-Jul-12 03:00N 39°54' E 019°30'1515.1 160 / 101014.110.8 24.517.524.0
2017-Jul-12 02:00N 40°06' E 019°18'915.4 150 / 111014.010.8 24.820.124.0
2017-Jul-12 01:24N 40°13' E 019°10'2048.9
2017-Jul-12 01:00N 39°54' E 019°00'22446.7 160 / 151014.510.8 26.0 24.0
2017-Jul-12 00:57N 40°16' E 019°03'613.0
2017-Jul-12 00:30N 40°20' E 018°58'4 7.1
2017-Jul-12 00:00N 40°18' E 018°54'1032.8 150 / 141014.510.8 26.0 24.0
2017-Jul-11 23:41N 40°27' E 018°47'312.7
2017-Jul-11 23:28N 40°29' E 018°45'612.7
2017-Jul-11 23:00N 40°33' E 018°39'612.7
2017-Jul-11 22:30N 40°37' E 018°33'612.8
2017-Jul-11 22:00N 40°41' E 018°26'713.0
2017-Jul-11 21:27N 40°46' E 018°19'912.5
2017-Jul-11 20:45N 40°52' E 018°11'412.4
2017-Jul-11 20:27N 40°54' E 018°07'2911.9
2017-Jul-11 18:00N 41°12' E 017°36'4314.5 150 / 131015.010.8 27.0 24.0
2017-Jul-11 15:00N 41°42' E 016°54'3913.1 090 / 151014.810.8 28.621.126.0
2017-Jul-11 12:00N 42°06' E 016°12'9012.9 040 / 91016.010.8 28.621.126.0
2017-Jul-11 05:00N 43°12' E 014°48'2713.7 340 / 51014.310.8 28.018.726.0
2017-Jul-11 03:00N 43°36' E 014°30'713.2 270 / 121013.210.8 27.925.126.0
2017-Jul-11 02:27N 43°43' E 014°26'613.3
2017-Jul-11 02:00N 43°47' E 014°21'713.3
2017-Jul-11 01:30N 43°53' E 014°15'713.4
2017-Jul-11 01:00N 43°58' E 014°10'713.4
2017-Jul-11 00:30N 44°03' E 014°05'612.9
2017-Jul-11 00:00N 44°09' E 013°60'302117.3
2017-Jul-11 00:00N 43°54' E 014°36'3673.1 250 / 241011.710.8 27.724.924.0
2017-Jul-10 23:30N 44°14' E 013°55'612.3
2017-Jul-10 23:00N 44°19' E 013°50'912.5
2017-Jul-10 22:17N 44°27' E 013°43'613.9
2017-Jul-10 21:51N 44°32' E 013°39'513.6
2017-Jul-10 21:31N 44°36' E 013°35'714.2
2017-Jul-10 21:00N 44°41' E 013°29'714.1
2017-Jul-10 20:30N 44°47' E 013°24'713.4
2017-Jul-10 20:00N 44°53' E 013°19'713.4
2017-Jul-10 19:30N 44°59' E 013°14'713.1
2017-Jul-10 19:01N 45°04' E 013°08'  
Track history (hours):
 
Tides and Currents Weather Stations Pressure Air Temp Water Temp Dewpoint Dewpoint Depression Visibility Wind Speed Wind Dir Waves Ship Positions

Westerdam

Operator: Holland America Line

Last reported at 2017-Jul-20 18:30 UTC. Time now 2017-Jul-20 18:38 UTC.
Position N 38°20' E 015°40'.

Type: Passenger vessel. MMSI: 244128000.

Date/timePositionNaut miles runAvg speedWind from/ knotsBaromVisibWave heightAir tempDewpointWater temp
2017-Jul-20 18:30N 38°20' E 015°40'611.4
2017-Jul-20 17:59N 38°14' E 015°38'714.3
2017-Jul-20 17:28N 38°07' E 015°35'1315.4
2017-Jul-20 16:39N 37°55' E 015°38'315.8
2017-Jul-20 16:28N 37°52' E 015°40'816.8
2017-Jul-20 16:00N 37°50' E 015°49'916.6
2017-Jul-20 15:29N 37°47' E 015°60'714.5
2017-Jul-20 15:00N 37°42' E 016°06'4916.3 240 / 31013.510.8 27.918.024.0
2017-Jul-20 12:00N 37°30' E 017°06'1515.5 1014.510.8 27.918.024.0
2017-Jul-20 11:00N 37°24' E 017°24'1922.1 310 / 51014.710.8 27.817.624.0
2017-Jul-20 10:07N 37°23' E 017°49'218.9
2017-Jul-20 09:59N 37°23' E 017°51'919.0
2017-Jul-20 09:31N 37°20' E 018°02'3719.0
2017-Jul-20 07:33N 37°10' E 018°47'118.9
2017-Jul-20 07:30N 37°10' E 018°48'1018.9
2017-Jul-20 06:58N 37°07' E 019°01'2020.5
2017-Jul-20 06:00N 37°00' E 019°24'2020.1 360 / 141014.810.8 25.020.024.0
2017-Jul-20 05:00N 36°54' E 019°48'3818.2 350 / 211014.210.8 25.5 24.0
2017-Jul-20 02:54N 36°46' E 020°34'819.3
2017-Jul-20 02:31N 36°44' E 020°44'25033.3
2017-Jul-19 19:00N 36°24' E 025°54'24 3.4 010 / 321014.010.8 25.518.925.5
2017-Jul-19 12:00N 36°24' E 025°24'44 4.0 320 / 211013.210.8 25.518.925.5
2017-Jul-19 01:00N 36°18' E 024°30'26 8.6 350 / 281015.710.8 23.216.725.5
2017-Jul-18 22:00N 36°42' E 024°42'2612.4 360 / 251016.110.8
2017-Jul-18 19:52N 37°06' E 024°57'410.6
2017-Jul-18 19:30N 37°09' E 024°59'510.5
2017-Jul-18 19:00N 37°14' E 025°02'510.7
2017-Jul-18 18:30N 37°19' E 025°05'510.6
2017-Jul-18 18:01N 37°23' E 025°08'510.7
2017-Jul-18 17:30N 37°28' E 025°12'611.7
2017-Jul-18 17:00N 37°27' E 025°19'0 0.2
2017-Jul-18 16:31N 37°27' E 025°19'0 0.3
2017-Jul-18 16:01N 37°27' E 025°19'0 0.4
2017-Jul-18 15:30N 37°28' E 025°19'0 0.2
2017-Jul-18 15:00N 37°28' E 025°19'0 0.1
2017-Jul-18 14:00N 37°28' E 025°19'0 0.1
2017-Jul-18 13:31N 37°28' E 025°19'0 0.6
2017-Jul-18 13:00N 37°27' E 025°19'1 1.3
2017-Jul-18 12:28N 37°27' E 025°19'0 0.3
2017-Jul-18 11:58N 37°27' E 025°19'0 0.1
2017-Jul-18 11:28N 37°27' E 025°19'0 0.2
2017-Jul-18 10:58N 37°27' E 025°19'0 0.0
2017-Jul-18 10:25N 37°27' E 025°19'0 0.0
2017-Jul-18 09:58N 37°27' E 025°19'0 0.0
2017-Jul-18 09:28N 37°27' E 025°19'0 0.0
2017-Jul-18 08:58N 37°27' E 025°19'0 0.0
2017-Jul-18 08:28N 37°27' E 025°19'0 0.0
2017-Jul-18 07:55N 37°27' E 025°19'0 0.0
2017-Jul-18 07:28N 37°27' E 025°19'0 0.0
2017-Jul-18 06:58N 37°27' E 025°19'0 0.0
2017-Jul-18 06:28N 37°27' E 025°19'0 0.0
2017-Jul-18 05:58N 37°27' E 025°19'0 0.0
2017-Jul-18 05:28N 37°27' E 025°19'3 6.4
2017-Jul-18 05:00N 37°24' E 025°18'3103.2 340 / 281013.110.8 23.418.5
2017-Jul-18 04:58N 37°27' E 025°19'0 0.0
2017-Jul-18 04:28N 37°27' E 025°19'0 0.0
2017-Jul-18 03:58N 37°27' E 025°19'0 0.0
2017-Jul-18 03:28N 37°27' E 025°19'0 0.0
2017-Jul-18 02:58N 37°27' E 025°19'0 0.0
2017-Jul-18 02:28N 37°27' E 025°19'0 0.0
2017-Jul-18 01:58N 37°27' E 025°19'0 0.1
2017-Jul-18 01:25N 37°27' E 025°19'0 0.0
2017-Jul-18 00:58N 37°27' E 025°19'0 0.1
2017-Jul-18 00:30N 37°27' E 025°19'1 2.4
2017-Jul-18 00:00N 37°27' E 025°18'714.9
2017-Jul-17 23:30N 37°29' E 025°09'815.1
2017-Jul-17 23:00N 37°31' E 024°59'714.7
2017-Jul-17 22:30N 37°32' E 024°50'3422.2
2017-Jul-17 21:00N 37°18' E 024°12'29 6.0 360 / 221013.110.8 22.616.6
2017-Jul-17 16:12N 37°35' E 023°43'314.9
2017-Jul-17 16:00N 37°38' E 023°43'714.6
2017-Jul-17 15:30N 37°45' E 023°40'714.6
2017-Jul-17 15:00N 37°52' E 023°36'5 9.5
2017-Jul-17 14:31N 37°56' E 023°38'0 0.5
2017-Jul-17 13:58N 37°56' E 023°38'0 0.0
2017-Jul-17 13:28N 37°56' E 023°38'0 0.0
2017-Jul-17 12:58N 37°56' E 023°38'0 0.0
2017-Jul-17 12:28N 37°56' E 023°38'0 0.0
2017-Jul-17 11:58N 37°56' E 023°38'0 0.0
2017-Jul-17 11:28N 37°56' E 023°38'0 0.0
2017-Jul-17 10:58N 37°56' E 023°38'0 0.0
2017-Jul-17 10:28N 37°56' E 023°38'0 0.0
2017-Jul-17 09:58N 37°56' E 023°38'0 0.0
2017-Jul-17 09:28N 37°56' E 023°38'0 0.0
2017-Jul-17 08:58N 37°56' E 023°38'0 0.0
2017-Jul-17 08:25N 37°56' E 023°38'0 0.0
2017-Jul-17 07:58N 37°56' E 023°38'0 0.0
2017-Jul-17 07:28N 37°56' E 023°38'0 0.0
2017-Jul-17 06:58N 37°56' E 023°38'0 0.0
2017-Jul-17 06:28N 37°56' E 023°38'0 0.0
2017-Jul-17 05:58N 37°56' E 023°38'0 0.0
2017-Jul-17 05:28N 37°56' E 023°38'0 0.0
2017-Jul-17 04:58N 37°56' E 023°38'0 0.0
2017-Jul-17 04:28N 37°56' E 023°38'0 0.0
2017-Jul-17 03:58N 37°56' E 023°38'0 0.0
2017-Jul-17 03:28N 37°56' E 023°38'0 0.0
2017-Jul-17 02:58N 37°56' E 023°38'0 0.0
2017-Jul-17 02:28N 37°56' E 023°38'0 0.0
2017-Jul-17 01:58N 37°56' E 023°38'0 0.0
2017-Jul-17 01:28N 37°56' E 023°38'0 0.0
2017-Jul-17 00:55N 37°56' E 023°38'0 0.0
2017-Jul-17 00:28N 37°56' E 023°38'3 6.1
2017-Jul-17 00:00N 37°54' E 023°36'3113.8 330 / 81008.510.8 25.719.625.6
2017-Jul-16 23:58N 37°56' E 023°38'0 0.0
2017-Jul-16 23:28N 37°56' E 023°38'0 0.0
2017-Jul-16 22:58N 37°56' E 023°38'0 0.0
2017-Jul-16 22:28N 37°56' E 023°38'0 0.0
2017-Jul-16 21:58N 37°56' E 023°38'0 0.0
2017-Jul-16 21:28N 37°56' E 023°38'0 0.0
2017-Jul-16 20:58N 37°56' E 023°38'0 0.0
2017-Jul-16 20:28N 37°56' E 023°38'0 0.0
2017-Jul-16 19:58N 37°56' E 023°38'0 0.0
2017-Jul-16 19:28N 37°56' E 023°38'0 0.0
2017-Jul-16 18:58N 37°56' E 023°38'0 0.0
2017-Jul-16 18:28N 37°56' E 023°38'0 0.0
2017-Jul-16 17:58N 37°56' E 023°38'0 0.0
2017-Jul-16 17:28N 37°56' E 023°38'0 0.0
2017-Jul-16 16:58N 37°56' E 023°38'0 0.0
2017-Jul-16 16:28N 37°56' E 023°38'0 0.0
2017-Jul-16 15:58N 37°56' E 023°38'0 0.0
2017-Jul-16 15:28N 37°56' E 023°38'0 0.0
2017-Jul-16 14:58N 37°56' E 023°38'0 0.0
2017-Jul-16 14:28N 37°56' E 023°38'0 0.0
2017-Jul-16 13:58N 37°56' E 023°38'0 0.0
2017-Jul-16 13:28N 37°56' E 023°38'0 0.0
2017-Jul-16 12:58N 37°56' E 023°38'0 0.0
2017-Jul-16 12:28N 37°56' E 023°38'0 0.0
2017-Jul-16 11:58N 37°56' E 023°38'0 0.0
2017-Jul-16 11:28N 37°56' E 023°38'0 0.0
2017-Jul-16 10:58N 37°56' E 023°38'0 0.0
2017-Jul-16 10:28N 37°56' E 023°38'3 6.1
2017-Jul-16 10:00N 37°54' E 023°36'3115.0 1008.510.8 30.723.126.6
2017-Jul-16 09:58N 37°56' E 023°38'0 0.0
2017-Jul-16 09:28N 37°56' E 023°38'0 0.0
2017-Jul-16 08:58N 37°56' E 023°38'0 0.0
2017-Jul-16 08:28N 37°56' E 023°38'0 0.0
2017-Jul-16 07:58N 37°56' E 023°38'0 0.0
2017-Jul-16 07:28N 37°56' E 023°38'0 0.0
2017-Jul-16 06:58N 37°56' E 023°38'0 0.0
2017-Jul-16 06:28N 37°56' E 023°38'0 0.0
2017-Jul-16 05:58N 37°56' E 023°38'0 0.0
2017-Jul-16 05:28N 37°56' E 023°38'0 0.0
2017-Jul-16 04:58N 37°56' E 023°38'0 0.0
2017-Jul-16 04:28N 37°56' E 023°38'0 0.0
2017-Jul-16 03:58N 37°56' E 023°38'0 0.0
2017-Jul-16 03:28N 37°56' E 023°38'0 0.0
2017-Jul-16 02:58N 37°56' E 023°38'0 0.0
2017-Jul-16 02:28N 37°56' E 023°38'0 0.0
2017-Jul-16 01:58N 37°56' E 023°38'0 0.0
2017-Jul-16 01:28N 37°56' E 023°38'0 0.0
2017-Jul-16 00:58N 37°56' E 023°38'0 0.0
2017-Jul-16 00:28N 37°56' E 023°38'0 0.0
2017-Jul-15 23:58N 37°56' E 023°38'0 0.0
2017-Jul-15 23:28N 37°56' E 023°38'0 0.0
2017-Jul-15 22:58N 37°56' E 023°38'0 0.0
2017-Jul-15 22:29N 37°56' E 023°38'0 1.0
2017-Jul-15 22:00N 37°56' E 023°38'3 6.3
2017-Jul-15 21:30N 37°53' E 023°37'919.0
2017-Jul-15 21:00N 37°45' E 023°42'1019.2
2017-Jul-15 20:30N 37°36' E 023°47'45 2.5
2017-Jul-15 02:41N 37°15' E 022°57'4124.3
2017-Jul-15 01:00N 36°36' E 023°12'713.3 260 / 31007.010.8 26.717.726.6
2017-Jul-15 00:26N 36°43' E 023°11'716.4
2017-Jul-15 00:00N 36°36' E 023°12'1918.6 310 / 91007.010.8 26.717.726.6
2017-Jul-14 23:00N 36°18' E 023°06'6315.8 340 / 91007.010.8 26.717.726.6
2017-Jul-14 19:00N 36°24' E 021°48'3413.0 030 / 71007.0 5.4 26.7
2017-Jul-14 16:23N 36°51' E 021°22'3313.9
2017-Jul-14 14:00N 37°24' E 021°24'20 1.5 260 / 161007.010.8 28.1
2017-Jul-14 01:00N 37°30' E 021°00'0 0.0 040 / 51006.2 5.4 25.925.026.0
2017-Jul-13 23:00N 37°30' E 021°00'20 5.0 130 / 51007.010.8 25.5 26.0
2017-Jul-13 19:00N 37°24' E 020°36'1946139.0 340 / 241008.310.8 27.8
2017-Jul-13 05:00N 38°06' W 020°24'1911238.8 160 / 51008.710.8 27.515.823.7
2017-Jul-12 21:00N 38°36' E 020°12'85 4.7 280 / 31011.310.8 26.7
2017-Jul-12 03:00N 39°54' E 019°30'1515.1 160 / 101014.110.8 24.517.524.0
2017-Jul-12 02:00N 40°06' E 019°18'915.4 150 / 111014.010.8 24.820.124.0
2017-Jul-12 01:24N 40°13' E 019°10'2048.9
2017-Jul-12 01:00N 39°54' E 019°00'22446.7 160 / 151014.510.8 26.0 24.0
2017-Jul-12 00:57N 40°16' E 019°03'613.0
2017-Jul-12 00:30N 40°20' E 018°58'4 7.1
2017-Jul-12 00:00N 40°18' E 018°54'1032.8 150 / 141014.510.8 26.0 24.0
2017-Jul-11 23:41N 40°27' E 018°47'312.7
2017-Jul-11 23:28N 40°29' E 018°45'612.7
2017-Jul-11 23:00N 40°33' E 018°39'612.7
2017-Jul-11 22:30N 40°37' E 018°33'612.8
2017-Jul-11 22:00N 40°41' E 018°26'713.0
2017-Jul-11 21:27N 40°46' E 018°19'912.5
2017-Jul-11 20:45N 40°52' E 018°11'412.4
2017-Jul-11 20:27N 40°54' E 018°07'2911.9
2017-Jul-11 18:00N 41°12' E 017°36'4314.5 150 / 131015.010.8 27.0 24.0
2017-Jul-11 15:00N 41°42' E 016°54'3913.1 090 / 151014.810.8 28.621.126.0
2017-Jul-11 12:00N 42°06' E 016°12'9012.9 040 / 91016.010.8 28.621.126.0
2017-Jul-11 05:00N 43°12' E 014°48'2713.7 340 / 51014.310.8 28.018.726.0
2017-Jul-11 03:00N 43°36' E 014°30'713.2 270 / 121013.210.8 27.925.126.0
2017-Jul-11 02:27N 43°43' E 014°26'613.3
2017-Jul-11 02:00N 43°47' E 014°21'713.3
2017-Jul-11 01:30N 43°53' E 014°15'713.4
2017-Jul-11 01:00N 43°58' E 014°10'713.4
2017-Jul-11 00:30N 44°03' E 014°05'612.9
2017-Jul-11 00:00N 44°09' E 013°60'302117.3
2017-Jul-11 00:00N 43°54' E 014°36'3673.1 250 / 241011.710.8 27.724.924.0
2017-Jul-10 23:30N 44°14' E 013°55'612.3
2017-Jul-10 23:00N 44°19' E 013°50'912.5
2017-Jul-10 22:17N 44°27' E 013°43'613.9
2017-Jul-10 21:51N 44°32' E 013°39'513.6
2017-Jul-10 21:31N 44°36' E 013°35'714.2
2017-Jul-10 21:00N 44°41' E 013°29'714.1
2017-Jul-10 20:30N 44°47' E 013°24'713.4
2017-Jul-10 20:00N 44°53' E 013°19'713.4
2017-Jul-10 19:30N 44°59' E 013°14'713.1
2017-Jul-10 19:01N 45°04' E 013°08'  

Dump ship's entire track history